Temperature
13 13 14 15 18 20 21 22 22 21 21 20 20 21 23 23 23 22 17 17 16 16 16 16 17 17 17 17 17 17 17 17 17 17 17 17 16 16 16 16 16 16 16 16 16 16 15 15 15
13 13 14 16 19 20 21 22 21 21 20 18 19 19 21 21 18 17 16 16 16 16 16 16 16 16 16 16 16 16 16 17 17 16 16 16 16 16 16 16 16 16 16 15 15 15 15 15 15
13 13 15 18 19 21 22 21 21 20 18 18 19 19 20 19 17 16 16 16 16 16 15 16 16 16 16 16 16 16 16 16 16 16 16 16 16 16 16 16 16 15 15 15 15 15 15 15 15
13 14 16 18 19 20 21 21 19 19 18 18 19 19 17 16 15 15 16 16 15 15 15 16 16 16 16 16 16 16 16 16 16 16 16 16 16 16 16 16 15 15 15 15 15 15 15 14 14
13 15 17 17 19 20 20 19 18 20 19 18 19 19 17 15 15 15 15 15 15 15 15 15 15 16 16 16 16 16 16 16 16 16 16 16 16 15 15 15 15 15 15 15 14 14 14 14 14
14 16 17 18 19 19 19 18 18 19 19 18 18 19 17 14 14 15 15 15 15 15 15 15 15 15 15 15 15 16 16 16 16 16 16 15 15 15 15 15 15 15 15 14 14 14 14 14 14
14 16 17 18 18 18 18 17 18 19 19 18 18 19 16 14 14 14 14 15 14 15 15 15 15 15 15 15 15 15 15 15 15 15 15 15 15 15 15 15 15 14 14 14 14 14 14 14 14
13 16 17 17 18 18 18 17 17 18 18 16 16 18 17 14 14 14 14 14 14 14 14 14 14 14 15 15 15 15 15 15 15 15 15 15 15 15 14 14 14 14 14 14 14 14 13 14 13
12 15 16 17 18 18 17 17 16 15 16 15 15 15 14 14 14 14 14 14 14 14 14 14 14 14 14 15 15 15 15 15 15 15 15 14 14 14 14 14 14 14 13 13 13 13 13 13 13
13 15 16 17 17 17 17 17 16 16 16 16 14 13 13 13 13 13 13 13 14 14 14 14 14 14 14 14 14 14 14 14 14 14 14 14 14 14 13 13 13 13 13 13 13 13 13 13 12
13 14 16 15 15 15 16 16 15 17 17 17 15 13 13 13 13 13 13 13 13 13 14 14 14 14 14 14 14 14 14 14 14 14 14 14 13 13 13 13 13 13 13 12 12 12 12 12 12
13 14 14 15 14 14 15 15 15 15 16 15 14 13 13 13 13 13 13 13 13 13 13 14 14 14 14 14 14 14 14 14 14 13 13 13 13 13 13 12 12 12 12 12 12 12 12 12 12
13 13 13 13 13 13 13 14 14 14 13 13 13 13 12 13 13 13 13 13 13 13 13 13 13 14 14 14 14 13 13 13 13 13 13 13 13 12 12 12 12 12 12 12 12 11 11 11 11
13 12 13 13 13 13 13 13 14 13 12 12 12 12 12 12 12 12 13 12 13 13 13 13 13 13 13 13 13 13 13 13 13 13 13 12 12 12 12 12 12 12 12 11 11 11 11 11 11
12 12 13 13 13 13 14 14 14 12 12 12 12 12 12 12 12 12 12 12 12 13 13 13 13 13 13 13 13 13 13 13 12 12 12 12 12 12 12 11 11 11 11 11 11 10 11 11 10
12 12 13 13 13 13 14 14 14 12 12 12 12 12 11 11 11 11 12 12 12 12 12 13 13 13 13 13 12 12 12 12 12 12 12 12 11 11 11 11 11 11 11 11 10 10 10 10 10
12 12 12 12 13 13 13 14 13 11 11 12 12 11 11 10 11 11 11 12 12 12 12 12 12 12 12 12 12 12 12 12 12 11 11 11 11 11 11 11 10 10 10 10 10 10 10 10 10
11 12 12 12 12 12 12 13 12 11 11 12 11 11 10 10 10 10 11 11 11 12 12 12 12 12 12 12 12 12 11 11 11 11 11 11 11 11 10 10 10 10 10 10 10 9 9 9 9
11 11 11 12 11 12 12 12 12 11 11 11 11 11 10 10 9 10 10 10 11 11 11 12 12 12 12 12 11 11 11 11 11 11 11 11 10 10 10 10 10 10 10 9 9 9 9 9 9
11 11 11 11 10 11 11 12 12 11 11 11 11 10 10 9 9 9 10 10 10 11 11 11 11 11 11 11 11 11 11 11 11 11 11 10 10 10 10 10 10 9 9 9 9 9 9 8 8
10 11 11 10 10 11 11 11 11 11 10 10 9 9 9 9 8 8 9 9 10 10 10 11 11 11 11 11 11 11 11 11 10 10 10 10 10 10 10 9 9 9 9 9 9 8 8 8 8
9 10 10 9 10 11 11 12 12 12 11 10 9 9 9 8 8 8 8 9 9 9 10 10 10 10 10 11 10 10 10 10 10 10 10 10 10 9 9 9 9 9 9 9 8 8 8 8 7
9 9 9 9 10 10 11 11 12 11 11 11 10 9 8 8 8 8 8 8 9 9 9 9 9 10 10 10 10 10 10 10 10 10 10 9 9 9 9 9 9 9 8 8 8 8 8 7 7
8 9 9 9 9 9 11 11 11 11 11 11 10 9 8 7 7 7 7 8 8 8 9 9 9 9 9 10 10 10 10 9 9 9 9 9 9 9 9 9 9 8 8 8 8 8 7 7 7
8 8 8 8 8 10 10 10 11 10 9 10 9 9 8 7 7 6 6 7 7 8 8 8 8 9 9 9 9 9 9 9 9 9 9 9 9 9 9 9 8 8 8 8 7 7 7 7 7
8 9 8 9 9 10 9 10 10 8 8 7 8 8 7 7 6 6 6 7 7 7 7 8 8 8 8 8 8 8 8 8 8 8 8 8 8 9 9 8 8 8 8 7 7 7 7 6 6
7 8 8 8 8 9 10 10 9 8 7 7 7 6 6 6 5 5 6 6 7 7 7 7 7 7 7 7 7 7 7 8 8 8 8 8 8 8 8 8 8 8 7 7 7 7 6 6 6
7 7 7 8 8 9 10 9 10 8 8 7 7 6 5 5 5 5 5 6 6 6 6 6 6 6 7 7 6 7 7 7 7 8 8 8 8 8 8 8 8 7 7 7 7 6 6 6 6
6 6 7 7 8 9 9 10 8 8 7 7 6 6 5 4 4 4 5 5 5 6 6 6 6 6 6 6 6 6 6 7 7 7 7 7 7 7 7 7 7 7 7 7 6 6 6 6 6
6 6 7 7 7 8 9 9 7 6 6 6 5 4 4 3 3 4 4 4 5 5 5 5 5 5 5 5 5 5 6 6 6 7 7 7 7 7 7 7 7 7 7 6 6 6 6 5 5
Wind_Speed
2 3 3 4 6 7 13 9 6 6 5 4 3 4 5 5 3 2 4 7 9 12 14 15 14 14 13 13 12 12 12 11 11 11 10 10 10 9 9 8 8 8 7 7 7 7 7 7 7
3 4 4 5 8 12 11 10 10 7 4 4 4 4 4 3 0 3 5 7 10 12 13 14 14 14 14 13 13 12 12 11 11 11 10 10 9 9 9 8 8 7 7 7 7 7 7 7 7
4 4 5 5 9 13 9 7 8 5 4 4 4 3 2 2 3 3 5 9 11 12 13 14 15 14 14 13 12 12 12 11 11 11 10 10 9 9 8 8 8 7 7 7 6 6 6 6 6
5 4 4 8 15 12 6 3 5 6 5 4 4 4 2 2 1 4 8 10 11 12 12 14 14 14 13 13 12 12 11 11 10 10 10 9 9 8 8 8 7 7 7 6 6 6 6 6 6
4 5 8 11 15 10 6 3 4 6 6 5 5 4 3 3 3 6 9 10 11 11 11 14 14 14 13 13 12 11 11 10 10 10 9 9 9 8 8 8 7 7 6 6 5 5 5 6 6
6 6 10 15 14 9 8 7 6 6 5 4 5 5 3 4 5 7 9 9 10 10 11 13 13 14 13 12 12 11 11 10 10 9 9 9 9 8 8 8 7 7 6 6 5 5 5 5 5
7 8 11 13 12 10 7 7 8 7 7 5 4 5 5 5 5 7 9 9 9 9 9 10 12 12 13 12 12 11 10 10 10 9 9 9 9 8 7 7 6 6 5 5 5 5 5 4 4
5 6 10 11 12 10 6 6 4 6 5 3 3 4 5 5 6 8 9 8 8 8 8 9 10 10 10 11 11 11 10 10 10 9 9 9 8 8 7 7 6 6 5 5 4 4 4 4 3
4 8 12 12 10 7 7 6 4 2 4 3 2 1 3 8 9 9 9 8 7 7 7 7 8 8 8 9 10 10 10 10 9 9 9 8 6 6 6 6 6 5 5 4 4 4 3 3 2
8 11 14 8 7 5 6 6 4 5 5 4 3 3 7 9 10 10 10 9 8 8 7 6 6 7 7 7 8 8 8 8 7 6 6 5 5 4 4 6 5 5 4 4 4 3 2 0 0
8 11 9 7 6 4 5 4 4 6 7 6 7 8 8 9 9 9 9 9 8 7 6 6 5 6 6 5 6 5 5 6 6 5 5 4 4 4 3 3 4 3 3 2 2 1 1 1 1
8 10 8 6 5 5 5 5 5 7 5 2 4 8 9 9 9 8 8 7 7 6 5 5 5 5 5 5 5 5 4 4 4 5 5 4 3 2 2 2 2 1 1 0 0 0 1 1 1
10 7 7 6 5 4 4 5 5 7 4 2 4 7 9 8 7 6 7 7 6 6 5 5 5 5 5 5 4 4 4 4 4 4 4 3 2 2 2 1 1 1 0 0 1 1 1 1 1
7 6 6 5 6 5 5 6 6 5 3 4 6 8 8 8 7 6 6 6 6 6 6 5 5 5 5 4 4 4 4 4 4 4 4 4 3 2 2 1 1 1 1 1 1 1 1 1 1
5 6 6 6 6 5 5 6 7 4 4 5 6 7 7 6 6 6 5 5 5 5 5 5 5 5 5 5 5 4 4 4 4 4 4 4 3 3 2 1 1 1 1 1 0 1 1 1 1
6 8 8 5 5 5 8 10 5 3 5 6 6 6 6 5 5 4 4 4 4 4 5 5 4 5 5 4 4 4 4 4 3 4 4 4 4 3 3 2 1 1 1 1 0 1 1 1 2
7 10 10 6 5 5 8 8 3 3 5 5 6 5 5 5 5 4 3 3 3 4 5 5 5 5 5 4 3 3 3 3 3 3 3 3 4 4 3 2 1 1 1 1 0 1 1 2 2
10 10 10 8 5 6 8 8 5 4 5 6 5 5 5 5 5 4 3 3 3 3 3 4 5 5 4 4 3 3 3 3 3 3 3 3 3 3 3 2 1 1 1 1 1 1 1 1 2
9 10 9 7 4 7 9 8 7 5 5 5 5 5 5 5 3 3 3 3 3 2 3 3 4 5 4 4 4 3 3 3 3 2 3 3 3 3 3 2 2 2 2 1 1 1 1 1 1
8 10 8 4 2 5 7 8 6 6 7 6 6 6 5 4 3 2 2 2 3 3 3 3 4 4 5 4 4 3 2 2 2 2 2 3 4 4 3 3 2 2 2 2 1 1 1 1 1
8 10 8 4 2 4 5 7 7 7 5 4 4 5 5 5 5 4 3 3 2 2 3 3 3 4 4 4 3 2 2 1 2 2 3 3 3 4 3 3 3 3 2 2 2 2 2 2 2
7 6 6 6 6 4 6 6 7 7 6 5 5 4 4 4 4 4 4 3 3 2 2 2 3 3 3 4 4 5 4 4 4 3 3 3 3 3 3 3 3 3 3 3 3 3 3 3 2
4 4 5 6 6 4 6 6 5 4 6 7 6 5 4 4 4 4 3 3 2 1 1 2 2 2 3 3 5 5 4 4 3 3 3 3 3 3 2 3 3 3 3 3 3 3 4 4 4
4 3 3 4 4 6 9 8 5 4 6 5 5 4 4 4 4 3 2 2 2 1 1 1 1 2 2 3 4 5 4 4 3 3 3 3 2 2 2 2 2 3 3 3 3 4 4 4 4
5 6 3 4 6 6 6 6 5 1 2 3 3 3 3 4 4 3 3 2 2 1 1 1 1 1 2 3 3 4 4 4 4 4 3 3 2 2 3 2 3 3 3 3 3 3 4 4 4
8 7 4 4 6 3 5 7 3 2 1 2 1 1 2 3 3 3 3 2 2 1 1 0 0 1 1 2 3 3 3 3 3 4 3 3 3 3 3 3 3 3 3 2 3 3 3 3 4
5 6 2 1 2 3 5 3 2 0 2 2 2 2 2 1 1 1 2 2 1 1 1 1 1 1 1 1 2 2 3 3 3 3 3 2 2 2 2 3 4 3 3 3 3 3 3 3 4
2 4 3 3 4 4 4 4 2 1 1 2 2 2 2 2 1 1 1 1 1 1 1 1 0 1 0 1 1 2 2 2 3 2 2 2 2 1 2 3 3 3 3 3 3 3 3 3 3
3 3 2 3 2 3 3 2 1 1 1 1 2 2 2 2 1 1 1 1 1 1 2 1 0 0 0 1 1 1 1 2 2 2 2 2 2 2 2 2 3 3 3 3 3 3 3 3 3
2 4 4 3 3 3 3 0 3 1 2 2 2 2 2 2 2 1 1 2 2 2 2 1 1 1 1 1 1 1 1 1 2 2 2 2 2 2 2 2 2 3 3 3 3 3 3 4 4
Wind_Direction
220 201 196 195 205 221 229 216 208 184 189 190 183 196 205 203 203 116 96 145 144 147 145 143 140 137 133 130 127 124 122 120 119 117 114 111 107 103 100 96 92 89 86 83 82 81 79 76 73
193 182 193 204 220 219 222 215 208 198 163 152 176 200 201 205 61 88 125 142 147 145 145 144 139 136 133 132 129 127 124 121 119 116 113 112 109 106 102 98 94 89 86 80 76 76 78 77 72
176 202 200 203 221 225 217 197 200 175 168 181 174 191 206 156 128 123 127 147 146 143 144 138 138 136 134 133 130 128 125 122 120 117 114 112 109 106 103 99 95 89 85 79 74 75 76 74 72
182 182 206 223 222 225 234 169 166 173 176 189 181 159 148 73 88 116 135 148 145 142 140 134 134 133 133 132 130 127 125 123 122 120 118 114 108 105 103 98 92 88 85 81 76 76 76 73 70
206 195 205 221 227 225 225 215 187 193 183 181 190 176 145 101 99 128 141 146 144 140 135 135 131 130 129 129 129 127 126 124 122 121 119 116 111 105 101 99 93 88 83 80 77 78 75 72 69
191 205 214 220 221 221 217 211 206 211 193 183 187 176 146 110 125 133 142 145 142 140 135 136 133 132 131 130 129 128 126 126 124 120 116 113 109 105 102 99 95 91 85 80 79 78 75 71 65
207 206 222 222 220 219 213 203 209 207 200 191 186 172 152 132 124 140 144 142 141 140 139 140 145 140 135 132 131 131 129 128 125 120 114 110 107 104 102 97 93 91 85 81 80 76 73 66 59
224 215 221 220 218 219 196 189 205 210 200 157 187 187 170 152 145 145 142 141 141 143 145 145 149 148 148 143 134 134 132 128 125 121 115 114 114 111 107 103 94 89 85 82 83 79 72 64 58
211 220 220 214 214 209 184 193 192 205 170 167 172 55 112 132 146 148 146 148 149 150 150 148 150 151 151 150 144 141 136 129 130 126 120 127 128 123 120 104 99 93 88 85 81 73 67 68 86
205 222 224 221 219 206 187 198 186 185 196 201 182 128 125 141 154 162 165 165 164 163 160 156 154 155 154 152 154 154 149 143 141 139 139 139 133 127 123 120 114 105 97 98 85 74 82 250 150
209 226 225 225 222 215 206 206 202 205 217 218 196 164 155 161 167 174 177 175 172 166 163 163 159 159 158 156 156 154 150 148 148 146 144 143 139 140 139 138 136 130 124 104 104 127 49 344 340
217 227 225 223 222 225 223 216 222 232 246 251 188 165 166 175 180 183 183 179 173 172 167 165 162 161 162 160 158 155 153 154 152 154 155 155 150 156 151 155 148 155 151 115 257 315 354 333 316
221 226 226 229 223 225 227 232 242 245 256 234 173 170 177 181 183 184 183 181 179 179 177 171 169 167 163 163 162 164 164 164 158 158 163 168 168 172 173 173 170 187 199 232 306 312 337 318 320
213 217 221 230 231 232 225 246 244 241 220 181 173 178 183 184 183 179 179 183 188 187 184 177 173 171 167 170 171 171 173 172 170 165 167 176 179 179 183 185 185 199 226 265 280 314 317 315 315
201 210 225 230 226 219 212 239 235 228 200 193 192 192 193 193 190 190 187 188 191 191 186 184 181 175 176 178 177 175 178 179 175 168 172 178 184 189 192 196 201 213 228 240 276 315 310 314 309
207 209 218 213 206 213 217 233 216 198 201 206 203 200 199 199 200 196 195 198 195 190 189 185 181 181 178 178 179 174 178 181 178 172 177 184 189 195 198 202 210 224 213 200 217 303 309 309 307
204 212 216 211 213 207 215 234 212 194 202 207 202 199 198 199 204 203 204 203 195 192 190 185 183 183 179 174 174 171 171 179 177 174 177 190 194 200 206 211 212 210 212 207 224 286 298 308 317
205 210 214 214 205 210 217 230 218 207 213 213 208 206 205 206 209 206 206 203 193 188 186 187 182 182 173 167 165 164 170 180 181 182 183 186 194 202 207 208 206 206 214 224 237 273 299 306 317
214 212 221 230 220 215 220 231 228 221 214 217 216 214 213 217 213 197 197 191 185 175 180 182 185 181 174 173 179 184 192 191 191 195 193 191 196 200 202 205 202 215 222 234 227 247 287 342 340
211 212 224 229 211 219 222 237 236 223 221 225 224 222 217 213 205 192 186 181 186 181 183 190 188 187 186 190 191 200 192 200 196 190 200 206 203 200 204 210 210 217 226 226 220 212 246 302 298
214 213 209 205 232 222 222 236 224 221 222 232 238 234 226 217 211 197 192 189 191 192 193 193 190 189 191 185 178 162 158 168 182 195 203 213 209 205 209 213 213 216 222 225 224 218 233 240 268
215 211 205 200 204 210 212 232 218 212 215 227 235 235 232 221 212 194 191 191 196 202 200 194 186 187 184 183 186 188 196 205 211 212 204 205 206 205 207 215 216 219 224 228 229 228 238 228 241
204 196 197 200 211 221 215 230 226 195 227 230 230 230 231 219 206 194 190 188 184 172 180 190 183 184 185 190 194 202 214 217 209 205 204 201 200 205 204 212 216 220 229 232 234 234 236 234 242
148 142 156 181 203 222 215 219 233 205 225 223 220 221 219 209 197 188 173 160 141 110 110 138 173 183 191 196 203 212 218 214 200 203 207 206 205 206 200 218 227 229 231 232 235 239 242 244 250
164 152 164 186 204 219 184 214 234 170 254 236 226 217 207 191 182 173 160 156 138 110 99 115 166 188 203 203 210 219 224 218 213 212 213 212 212 215 212 221 229 230 234 234 235 238 247 251 252
191 188 193 203 205 195 186 217 201 68 345 334 268 197 175 178 179 177 172 164 153 133 110 115 183 205 208 211 221 227 228 224 223 221 218 218 220 228 224 223 230 231 233 234 232 233 241 246 251
185 200 217 181 196 211 204 214 241 338 356 18 40 64 77 102 147 159 157 151 142 142 144 170 205 222 223 224 227 231 231 229 226 220 218 220 232 240 229 228 222 223 224 232 233 235 242 248 251
212 178 186 196 195 215 212 226 232 207 314 22 35 45 48 53 72 91 99 93 107 116 116 136 178 222 250 244 231 239 238 232 226 214 208 213 216 225 226 227 223 219 222 229 230 232 241 246 254
155 170 187 191 241 228 218 198 45 307 4 10 23 31 40 51 69 81 69 64 63 78 81 70 42 16 1 290 258 242 241 235 218 211 209 210 212 217 222 224 231 225 223 229 231 234 235 242 255
207 196 191 198 206 227 232 237 54 35 31 21 13 27 40 45 52 69 65 58 54 55 60 55 14 349 334 315 287 270 246 221 213 208 208 211 212 217 222 225 233 238 231 226 229 234 233 239 249
Height
1510 1512 1515 1518 1517 1511 1502 1498 1499 1503 1504 1507 1507 1507 1506 1506 1508 1513 1514 1513 1515 1517 1520 1522 1524 1526 1528 1530 1531 1532 1533 1534 1535 1535 1535 1536 1536 1536 1536 1536 1536 1536 1536 1536 1536 1535 1535 1535 1534
1510 1513 1517 1517 1510 1505 1499 1496 1499 1501 1504 1507 1508 1508 1508 1508 1510 1511 1511 1512 1515 1517 1520 1522 1524 1526 1528 1530 1531 1532 1533 1534 1535 1535 1536 1536 1536 1536 1536 1536 1536 1536 1536 1536 1535 1535 1535 1534 1534
1510 1512 1516 1511 1505 1496 1494 1496 1497 1503 1506 1507 1507 1508 1508 1509 1510 1511 1511 1512 1515 1518 1520 1522 1524 1526 1528 1530 1531 1532 1533 1534 1535 1535 1536 1536 1536 1536 1536 1536 1536 1536 1536 1535 1535 1534 1534 1534 1534
1510 1513 1514 1508 1499 1495 1494 1497 1500 1502 1505 1506 1506 1507 1509 1510 1510 1510 1511 1513 1516 1518 1520 1522 1524 1526 1528 1530 1531 1532 1533 1534 1535 1535 1536 1536 1536 1536 1536 1536 1535 1535 1535 1535 1534 1534 1534 1533 1533
1509 1510 1507 1502 1496 1495 1498 1500 1502 1501 1502 1504 1506 1505 1508 1509 1509 1510 1511 1514 1516 1518 1521 1522 1525 1527 1528 1530 1531 1532 1533 1534 1535 1535 1535 1535 1535 1536 1535 1535 1535 1535 1534 1534 1534 1533 1533 1532 1532
1508 1505 1500 1495 1493 1495 1498 1501 1502 1501 1502 1504 1505 1505 1508 1508 1509 1510 1512 1514 1517 1519 1521 1522 1525 1527 1528 1530 1531 1532 1533 1534 1534 1535 1535 1535 1535 1535 1535 1535 1534 1534 1534 1533 1533 1532 1532 1531 1531
1504 1500 1493 1490 1492 1494 1497 1500 1500 1499 1501 1503 1504 1504 1507 1509 1509 1510 1512 1515 1517 1519 1521 1523 1525 1526 1528 1529 1531 1532 1533 1533 1534 1534 1535 1535 1535 1535 1534 1534 1534 1533 1533 1532 1532 1531 1531 1530 1530
1501 1499 1494 1491 1491 1492 1496 1499 1499 1500 1500 1503 1505 1504 1506 1508 1508 1510 1512 1515 1517 1519 1521 1522 1524 1526 1527 1529 1530 1531 1532 1533 1533 1534 1534 1534 1534 1534 1534 1533 1533 1532 1532 1531 1531 1530 1530 1529 1528
1501 1499 1490 1489 1490 1490 1495 1497 1499 1500 1501 1502 1503 1505 1506 1506 1508 1510 1512 1515 1516 1518 1520 1522 1523 1525 1527 1528 1529 1530 1531 1532 1533 1533 1533 1533 1533 1533 1533 1532 1532 1531 1531 1530 1530 1529 1528 1528 1527
1498 1492 1487 1488 1490 1491 1494 1495 1498 1499 1500 1501 1502 1503 1504 1506 1508 1510 1512 1514 1516 1518 1519 1521 1522 1524 1525 1527 1528 1529 1530 1531 1532 1532 1532 1532 1532 1532 1532 1531 1531 1531 1530 1529 1529 1528 1527 1526 1526
1493 1489 1489 1491 1492 1493 1494 1496 1497 1497 1497 1498 1500 1501 1503 1505 1508 1510 1512 1514 1515 1517 1518 1520 1521 1523 1524 1526 1527 1528 1529 1529 1530 1531 1531 1531 1531 1531 1531 1530 1530 1529 1529 1528 1527 1527 1526 1525 1524
1491 1490 1490 1491 1493 1494 1494 1495 1497 1497 1497 1498 1500 1501 1502 1505 1507 1509 1511 1512 1514 1516 1517 1519 1520 1522 1523 1524 1525 1526 1527 1528 1528 1529 1529 1530 1530 1530 1529 1529 1528 1528 1527 1527 1526 1525 1524 1524 1523
1489 1489 1490 1492 1493 1493 1494 1495 1495 1496 1497 1497 1498 1500 1502 1504 1506 1508 1509 1511 1512 1514 1516 1517 1519 1520 1522 1523 1524 1525 1526 1527 1527 1527 1528 1528 1528 1528 1528 1528 1527 1527 1526 1525 1525 1524 1523 1522 1521
1488 1489 1490 1491 1491 1492 1493 1494 1495 1494 1496 1497 1498 1499 1501 1503 1504 1506 1507 1509 1510 1512 1514 1516 1517 1519 1520 1521 1523 1524 1524 1525 1526 1526 1526 1526 1527 1527 1526 1526 1525 1525 1525 1524 1523 1523 1522 1521 1520
1487 1488 1488 1489 1489 1491 1492 1491 1492 1494 1495 1496 1497 1498 1500 1501 1503 1504 1505 1507 1508 1510 1512 1514 1515 1517 1518 1520 1521 1522 1522 1523 1524 1524 1525 1525 1525 1525 1525 1524 1524 1523 1523 1522 1522 1521 1520 1519 1518
1485 1485 1485 1486 1487 1489 1491 1487 1490 1493 1494 1494 1495 1497 1498 1499 1501 1502 1504 1505 1506 1508 1509 1511 1513 1515 1516 1518 1519 1520 1521 1521 1522 1522 1523 1523 1523 1523 1523 1523 1522 1522 1521 1521 1520 1519 1519 1518 1517
1482 1480 1481 1484 1486 1487 1487 1485 1490 1492 1493 1493 1494 1495 1496 1498 1499 1500 1501 1503 1504 1505 1507 1509 1510 1512 1514 1515 1517 1518 1519 1519 1520 1520 1520 1521 1521 1521 1521 1521 1520 1520 1519 1519 1518 1518 1517 1516 1515
1478 1478 1480 1482 1485 1486 1486 1486 1489 1491 1492 1492 1493 1494 1495 1496 1497 1498 1499 1500 1501 1503 1504 1506 1508 1509 1511 1513 1514 1515 1516 1517 1518 1518 1518 1518 1519 1519 1519 1519 1518 1518 1518 1517 1517 1516 1516 1515 1514
1477 1478 1479 1481 1485 1486 1484 1484 1486 1489 1490 1491 1491 1492 1493 1494 1495 1496 1496 1498 1499 1500 1502 1503 1505 1507 1508 1510 1511 1512 1514 1515 1515 1516 1516 1516 1516 1517 1517 1516 1516 1516 1516 1515 1515 1514 1514 1513 1512
1478 1478 1479 1482 1485 1485 1484 1484 1485 1487 1488 1489 1489 1490 1490 1491 1492 1492 1494 1495 1496 1497 1499 1500 1502 1504 1505 1507 1508 1510 1511 1512 1513 1513 1514 1514 1514 1514 1514 1514 1514 1513 1513 1513 1513 1512 1511 1511 1511
1478 1477 1478 1482 1485 1484 1484 1481 1482 1483 1486 1487 1488 1488 1488 1489 1490 1490 1491 1492 1493 1495 1496 1497 1499 1501 1502 1504 1506 1507 1508 1509 1510 1510 1511 1511 1512 1512 1512 1512 1511 1511 1511 1511 1510 1510 1510 1509 1509
1477 1477 1479 1482 1482 1480 1481 1476 1474 1477 1481 1483 1484 1485 1486 1487 1488 1488 1489 1490 1491 1492 1494 1495 1496 1498 1499 1501 1502 1504 1505 1506 1507 1508 1508 1509 1509 1509 1509 1509 1509 1509 1509 1508 1508 1508 1508 1507 1507
1478 1479 1480 1481 1481 1481 1479 1479 1470 1475 1476 1478 1480 1482 1483 1484 1485 1486 1487 1488 1489 1490 1491 1493 1494 1495 1496 1498 1499 1501 1502 1503 1504 1505 1505 1506 1506 1507 1507 1507 1507 1506 1506 1506 1505 1505 1505 1505 1505
1480 1481 1480 1481 1480 1482 1474 1475 1470 1472 1472 1474 1477 1480 1481 1482 1483 1484 1485 1486 1487 1488 1489 1490 1491 1492 1493 1495 1496 1497 1499 1500 1501 1502 1502 1503 1504 1504 1503 1504 1504 1504 1504 1503 1503 1503 1502 1502 1502
1478 1478 1480 1481 1480 1472 1473 1474 1471 1472 1475 1475 1476 1478 1479 1480 1481 1482 1483 1484 1485 1485 1486 1488 1488 1489 1491 1492 1493 1494 1495 1497 1498 1499 1499 1500 1501 1501 1501 1501 1501 1501 1501 1501 1501 1500 1500 1500 1500
1476 1475 1476 1474 1470 1469 1477 1472 1469 1476 1477 1476 1476 1477 1478 1479 1480 1481 1482 1483 1483 1484 1485 1485 1486 1487 1488 1489 1490 1491 1492 1493 1494 1496 1496 1497 1498 1498 1498 1499 1499 1499 1499 1498 1498 1498 1497 1497 1497
1478 1476 1477 1477 1475 1473 1467 1469 1472 1475 1475 1475 1476 1476 1477 1478 1479 1479 1480 1481 1482 1483 1483 1484 1484 1485 1486 1486 1487 1488 1489 1490 1491 1492 1493 1494 1495 1495 1496 1496 1496 1496 1496 1496 1495 1495 1495 1494 1494
1479 1478 1479 1477 1473 1466 1465 1469 1467 1472 1473 1474 1475 1476 1477 1478 1478 1478 1479 1480 1481 1481 1482 1483 1483 1483 1484 1484 1485 1486 1487 1488 1488 1490 1490 1491 1492 1492 1493 1493 1493 1493 1493 1493 1493 1493 1492 1492 1492
1481 1481 1478 1475 1473 1467 1465 1467 1471 1473 1474 1475 1476 1477 1477 1477 1477 1478 1478 1479 1479 1480 1480 1481 1481 1482 1482 1482 1483 1483 1484 1485 1486 1487 1488 1488 1489 1489 1489 1490 1490 1490 1490 1490 1490 1490 1490 1489 1489
1481 1479 1478 1476 1478 1473 1467 1473 1475 1476 1476 1476 1477 1477 1477 1477 1477 1477 1477 1478 1478 1478 1479 1479 1480 1480 1480 1480 1481 1481 1482 1482 1483 1484 1485 1486 1486 1486 1487 1487 1487 1487 1487 1488 1488 1487 1487 1486 1486